Location: Pasadena, ca
(34.1243°N, 118.1037°W)
Time: 17:37:47
(UTC-07:00)

Tiangong 2 - Pass Details

Date: 12 October 2017
Orbit: 388 x 391 km, 42.8° (Epoch: 22 October)

Event Time Altitude Azimuth Distance (km) Brightness Sun altitude
Exits shadow 05:20:51 22° 2° (N) 911 3.0 -20.4°
Drops below altitude 10° 05:22:58 10° 41° (NE) 1,421 4.5 -19.9°
Sets 05:25:19 0° 57° (ENE) 2,278 6.0 -19.4°
